TimeCDT,TemperatureF,Dew PointF,Humidity,Sea Level PressureIn,VisibilityMPH,Wind Direction,Wind SpeedMPH,Gust SpeedMPH,PrecipitationIn,Events,Conditions,WindDirDegrees,DateUTC
12:13 AM,51.3,50.7,98,29.98,5.0,NNE,8.1,-,N/A,Rain,Light Rain,30,2013-10-04 05:13:00
12:33 AM,51.1,50.4,97,29.99,5.0,NE,8.1,16.1,N/A,Rain,Light Rain,40,2013-10-04 05:33:00
12:52 AM,51.1,50.4,97,29.97,4.0,NNE,8.1,-,N/A,Rain,Light Rain,20,2013-10-04 05:52:00
1:13 AM,51.1,50.4,97,29.97,5.0,NNE,8.1,-,N/A,Rain,Light Rain,30,2013-10-04 06:13:00
1:33 AM,50.9,50.2,97,29.96,5.0,NNE,9.2,18.4,N/A,Rain,Rain,30,2013-10-04 06:33:00
1:53 AM,51.1,50.4,97,29.97,7.0,NE,6.9,-,N/A,Rain,Heavy Rain,40,2013-10-04 06:53:00
2:12 AM,51.3,50.4,97,29.98,7.0,NE,8.1,-,N/A,Rain,Heavy Rain,40,2013-10-04 07:12:00
2:33 AM,51.6,50.2,95,29.99,10.0,NE,8.1,-,N/A,Rain,Heavy Rain,40,2013-10-04 07:33:00
2:53 AM,51.4,50.2,95,29.98,7.0,NNE,8.1,-,N/A,Rain,Heavy Rain,30,2013-10-04 07:53:00
3:13 AM,51.6,50.2,95,29.98,7.0,NNE,8.1,-,N/A,Rain,Heavy Rain,30,2013-10-04 08:13:00
3:32 AM,51.4,50.2,95,29.98,10.0,NE,5.8,-,N/A,Rain,Heavy Rain,50,2013-10-04 08:32:00
3:52 AM,51.4,50.2,95,29.97,5.0,NE,9.2,16.1,N/A,Rain,Heavy Rain,40,2013-10-04 08:52:00
4:13 AM,51.3,50.2,96,29.96,7.0,NNE,8.1,-,N/A,Rain,Heavy Rain,30,2013-10-04 09:13:00
4:33 AM,51.4,50.4,96,29.97,7.0,NE,8.1,-,N/A,Rain,Heavy Rain,50,2013-10-04 09:33:00
4:52 AM,51.4,50.2,95,29.98,7.0,ENE,9.2,-,N/A,Rain,Heavy Rain,60,2013-10-04 09:52:00
5:12 AM,51.6,50.2,95,29.99,7.0,ENE,8.1,-,N/A,Rain,Heavy Rain,60,2013-10-04 10:12:00
5:33 AM,51.6,50.4,95,29.99,5.0,NE,8.1,-,N/A,Rain,Light Rain,50,2013-10-04 10:33:00
5:53 AM,51.4,50.5,97,29.98,5.0,NE,6.9,-,N/A,Rain,Light Rain,50,2013-10-04 10:53:00
6:13 AM,51.3,50.5,97,29.99,4.0,NE,8.1,-,N/A,Rain,Light Rain,40,2013-10-04 11:13:00
6:33 AM,51.4,50.7,97,29.99,3.0,NNE,6.9,-,N/A,Rain,Light Rain,30,2013-10-04 11:33:00
6:53 AM,51.4,50.9,98,29.99,5.0,NE,9.2,-,N/A,Rain,Light Rain,40,2013-10-04 11:53:00
7:12 AM,51.4,50.9,98,29.99,7.0,NNE,8.1,-,N/A,Rain,Heavy Rain,30,2013-10-04 12:12:00
7:33 AM,51.6,50.9,97,30.00,7.0,NE,6.9,-,N/A,Rain,Heavy Rain,40,2013-10-04 12:33:00
7:53 AM,51.8,50.9,97,29.99,7.0,NE,9.2,-,N/A,Rain,Rain,40,2013-10-04 12:53:00
8:13 AM,51.8,51.1,97,29.99,5.0,NE,11.5,18.4,N/A,Rain,Heavy Rain,50,2013-10-04 13:13:00
8:33 AM,51.8,50.9,97,30.00,7.0,NE,8.1,16.1,N/A,Rain,Heavy Rain,50,2013-10-04 13:33:00
8:52 AM,51.8,50.9,97,30.00,5.0,NE,10.4,17.3,N/A,Rain,Rain,50,2013-10-04 13:52:00
9:13 AM,51.8,50.5,95,30.00,7.0,NE,11.5,17.3,N/A,Rain,Heavy Rain,50,2013-10-04 14:13:00
9:33 AM,52.0,50.4,94,30.00,7.0,ENE,12.7,18.4,N/A,Rain,Rain,60,2013-10-04 14:33:00
9:53 AM,52.0,50.4,94,29.99,7.0,NE,12.7,21.9,N/A,Rain,Rain,50,2013-10-04 14:53:00
10:12 AM,51.8,50.2,94,29.99,5.0,NE,13.8,21.9,N/A,Rain,Rain,50,2013-10-04 15:12:00
10:32 AM,52.0,50.5,95,29.98,4.0,NE,12.7,20.7,N/A,Rain,Heavy Rain,50,2013-10-04 15:32:00
10:53 AM,52.2,50.9,95,29.98,5.0,ENE,13.8,21.9,N/A,Rain,Heavy Rain,60,2013-10-04 15:53:00
11:13 AM,52.3,50.5,94,29.99,7.0,NE,11.5,21.9,N/A,Rain,Heavy Rain,40,2013-10-04 16:13:00
11:32 AM,52.9,50.9,93,29.99,7.0,ENE,12.7,20.7,N/A,Rain,Heavy Rain,60,2013-10-04 16:32:00
11:53 AM,53.1,50.5,91,30.00,7.0,ENE,10.4,16.1,N/A,Rain,Heavy Rain,60,2013-10-04 16:53:00
12:12 PM,53.6,50.7,90,30.01,7.0,ENE,11.5,18.4,N/A,Rain,Rain,60,2013-10-04 17:12:00
12:33 PM,53.8,50.9,90,30.01,7.0,ENE,10.4,16.1,N/A,Rain,Heavy Rain,70,2013-10-04 17:33:00
12:53 PM,53.8,50.9,90,29.99,7.0,ENE,17.3,20.7,N/A,Rain,Heavy Rain,70,2013-10-04 17:53:00
1:13 PM,53.8,50.9,90,30.00,5.0,ENE,13.8,24.2,N/A,Rain,Rain,60,2013-10-04 18:13:00
1:32 PM,54.0,51.3,91,29.98,5.0,ENE,13.8,19.6,N/A,Rain,Heavy Rain,60,2013-10-04 18:32:00
1:52 PM,54.5,51.4,89,29.96,5.0,ENE,12.7,19.6,N/A,Rain,Heavy Rain,60,2013-10-04 18:52:00
2:13 PM,54.5,51.3,89,29.95,5.0,NE,17.3,26.5,N/A,Rain,Heavy Rain,50,2013-10-04 19:13:00
2:33 PM,54.9,51.1,87,29.95,7.0,ENE,13.8,27.6,N/A,Rain,Heavy Rain,60,2013-10-04 19:33:00
2:52 PM,55.0,50.9,86,29.94,7.0,ENE,13.8,24.2,N/A,Rain,Heavy Rain,60,2013-10-04 19:52:00
3:12 PM,54.7,51.1,88,29.94,4.0,ENE,16.1,23.0,N/A,Rain,Heavy Rain,70,2013-10-04 20:12:00
3:33 PM,55.0,51.1,86,29.94,7.0,ENE,12.7,23.0,N/A,Rain,Heavy Rain,70,2013-10-04 20:33:00
3:52 PM,55.6,51.3,85,29.93,7.0,NE,15.0,23.0,N/A,Rain,Heavy Rain,50,2013-10-04 20:52:00
4:12 PM,55.9,51.3,84,29.91,5.0,NE,17.3,21.9,N/A,Rain,Heavy Rain,50,2013-10-04 21:12:00
4:33 PM,56.3,51.3,83,29.93,4.0,ENE,10.4,24.2,N/A,Rain,Heavy Rain,70,2013-10-04 21:33:00
4:53 PM,56.3,51.3,83,29.94,7.0,ENE,13.8,19.6,N/A,Rain,Rain,70,2013-10-04 21:53:00
5:12 PM,56.3,51.4,84,29.94,7.0,ENE,12.7,20.7,N/A,Rain,Heavy Rain,60,2013-10-04 22:12:00
5:33 PM,56.3,51.8,85,29.94,7.0,ENE,12.7,19.6,N/A,Rain,Heavy Rain,70,2013-10-04 22:33:00
5:53 PM,56.3,51.8,85,29.93,7.0,ENE,18.4,21.9,N/A,Rain,Heavy Rain,70,2013-10-04 22:53:00
6:13 PM,56.3,52.0,85,29.91,7.0,ENE,13.8,23.0,N/A,Rain,Heavy Rain,60,2013-10-04 23:13:00
6:32 PM,56.3,51.8,85,29.92,7.0,ENE,11.5,20.7,N/A,Rain,Heavy Rain,70,2013-10-04 23:32:00
6:53 PM,55.9,51.8,86,29.91,7.0,ENE,16.1,26.5,N/A,Rain,Heavy Rain,60,2013-10-04 23:53:00
7:13 PM,55.6,51.4,86,29.90,7.0,ENE,18.4,25.3,N/A,Rain,Heavy Rain,60,2013-10-05 00:13:00
7:32 PM,55.6,51.4,86,29.91,7.0,ENE,13.8,20.7,N/A,Rain,Heavy Rain,60,2013-10-05 00:32:00
7:53 PM,55.4,51.4,87,29.89,7.0,ENE,18.4,28.8,N/A,Rain,Heavy Rain,60,2013-10-05 00:53:00
8:12 PM,55.4,51.8,88,29.91,7.0,East,13.8,21.9,N/A,Rain,Heavy Rain,80,2013-10-05 01:12:00
8:33 PM,55.4,51.8,88,29.91,7.0,ENE,17.3,29.9,N/A,Rain,Heavy Rain,70,2013-10-05 01:33:00
8:53 PM,54.9,51.8,89,29.89,7.0,ENE,16.1,25.3,N/A,Rain,Rain,60,2013-10-05 01:53:00
9:13 PM,53.8,51.8,93,29.88,7.0,ENE,15.0,21.9,N/A,Rain,Light Rain,60,2013-10-05 02:13:00
9:32 PM,53.2,51.8,95,29.86,4.0,NE,16.1,25.3,N/A,Rain,Light Rain,50,2013-10-05 02:32:00
9:53 PM,52.7,51.6,96,29.85,4.0,ENE,16.1,24.2,0.01,Rain,Light Rain,60,2013-10-05 02:53:00
10:13 PM,52.7,51.6,96,29.86,7.0,ENE,13.8,23.0,0.01,Rain,Light Rain,60,2013-10-05 03:13:00
10:32 PM,52.7,51.4,95,29.85,7.0,ENE,12.7,21.9,0.01,Rain,Light Rain,60,2013-10-05 03:32:00
10:53 PM,52.7,51.8,97,29.86,7.0,ENE,11.5,20.7,0.01,Rain-Thunderstorm,Light Thunderstorms and Rain,70,2013-10-05 03:53:00
11:13 PM,52.9,51.8,96,29.85,10.0,ENE,13.8,18.4,0.03,Rain-Thunderstorm,Thunderstorms and Rain,70,2013-10-05 04:13:00
11:33 PM,53.1,51.8,95,29.83,10.0,ENE,16.1,26.5,0.05,Rain,Light Rain,70,2013-10-05 04:33:00
11:52 PM,53.1,51.8,95,29.81,7.0,ENE,18.4,25.3,0.05,Rain-Thunderstorm,Light Thunderstorms and Rain,70,2013-10-05 04:52:00